#timestamp,LO_Frequency,Hit,StdDev 
1633100415.4,286047003.5,N
1633100435.2,286047001.7,N
1633100455.0,286047002.8,N
1633100455.9,286047002.8,N
1633100475.8,286047000.9,N
1633100495.6,286047001.1,N
1633100515.5,286047000.7,N
1633100535.3,286046998.1,N
1633100555.1,286047000.0,N
1633100575.9,286047000.8,N
1633100595.7,286047000.0,N
1633100615.6,286047002.3,N
1633100635.4,286047000.6,N
1633100655.2,286047000.2,N
1633100675.1,286047000.5,N
1633100676.0,286047000.5,N
1633100695.8,286047001.2,N
1633100715.7,286046998.5,N
1633100735.5,286046998.3,N
1633100755.3,286046998.6,N
1633100775.2,286047001.2,N
1633100795.0,286047002.7,N
1633100795.9,286047002.7,N
1633100815.7,286047000.2,N
1633100835.6,286047000.9,N
1633100855.4,286047000.6,N
1633100875.3,286046999.0,N
1633100895.1,286046999.3,N
1633100915.8,286046999.4,N
1633100935.7,286046996.7,N
1633100955.5,286046998.1,N
1633100975.4,286047001.1,N
1633100995.2,286047000.6,N
1633101015.0,286046998.1,N
1633101015.9,286046998.1,N
1633101035.8,286046998.4,N
1633101055.6,286047002.3,N
1633101075.4,286047002.1,N
1633101095.3,286047002.3,N
1633101115.1,286047002.1,N
1633101135.9,286047001.4,N
1633101155.7,286047004.2,N
1633101175.5,286047001.8,N
1633101195.4,286047002.3,N
1633101215.2,286047000.3,N
1633101235.0,286047000.5,N
1633101236.0,286047000.5,N
1633101255.8,286046999.9,N
1633101275.6,286047000.1,N
1633101295.5,286047002.4,N
1633101345.3,286047000.2,E
1633101355.2,286047002.6,N
1633101375.1,286047002.4,P
1633101376.0,286047002.4,P
1633101395.8,286047000.1,N
1633101415.7,286047000.1,N
1633101435.5,286047001.5,N
1633101455.3,286047002.4,N
1633101475.2,286046999.7,N
1633101495.0,286047000.5,N
1633101495.9,286047000.5,N
1633101515.8,286047000.9,N
1633101535.6,286046998.1,N
1633101555.4,286046998.6,N
1633101575.3,286046998.5,N
1633101595.1,286047000.1,N
1633101615.9,286047001.0,N
1633101635.7,286047000.6,N
1633101655.5,286047000.8,N
1633101675.4,286046998.1,N
1633101695.2,286047000.8,N
1633101715.0,286046998.5,N
1633101715.9,286046998.5,N
1633101735.8,286047000.3,N
1633101755.6,286046998.3,N
1633101775.5,286046998.3,N
1633101795.3,286046998.7,N
1633101815.1,286046999.1,N
1633101835.9,286046999.1,N
1633101855.7,286046998.5,N
1633101875.6,286047000.9,N
1633101895.4,286047000.5,N
1633101915.2,286047000.9,N
1633101935.1,286046999.8,N
1633101936.0,286046999.8,N
1633101955.8,286046999.8,N
1633101975.7,286047002.8,N
1633101995.5,286047002.1,N
1633102015.3,286047002.1,N
1633102035.2,286047002.8,N
1633102055.9,286047000.4,N
1633102075.7,286047002.4,N
1633102095.6,286046999.9,N
1633102115.4,286047001.0,N
1633102135.3,286047000.3,N
1633102155.1,286046999.7,N
1633102156.0,286046999.7,N
1633102175.8,286046999.8,N
1633102195.7,286047002.3,N
1633102215.5,286047002.1,N
1633102235.3,286047001.7,N
1633102255.2,286046999.7,N
1633102275.0,286047002.1,N
1633102275.9,286047002.1,N
1633102295.8,286047002.7,N
1633102315.6,286046999.8,N
1633102335.4,286046999.8,N
1633102355.3,286046999.7,N
1633102375.1,286047001.9,N
1633102395.9,286047001.9,N
1633102415.7,286047001.6,N
1633102435.5,286047001.4,N
1633102455.4,286047001.7,N
1633102475.2,286047002.7,N
1633102495.0,286047004.4,Y
1633102495.9,286047004.4,P
1633102515.8,286046999.9,N
1633102535.6,286046998.5,N
1633102555.5,286046999.3,N
1633102575.3,286046998.6,N
1633102595.1,286047000.5,N
1633102615.9,286047000.4,N
1633102635.7,286046998.6,N
1633102655.6,286047000.7,N
1633102675.4,286047000.8,N
1633102695.2,286047001.2,N
1633102715.1,286046998.6,N
1633102716.0,286046998.6,N
1633102735.8,286047000.6,N
1633102755.7,286047000.5,N
1633102775.5,286047000.6,N
1633102795.3,286047000.4,N
1633102815.2,286047000.7,N
1633102835.9,286047000.2,N
1633102855.7,286047000.4,N
1633102875.6,286046999.2,N
1633102895.4,286046995.0,Y
1633102915.3,286046993.6,P
1633102935.1,286046992.1,N
1633102936.0,286046992.1,N
1633102955.8,286046992.3,N
1633102975.7,286046992.2,N
1633102995.5,286046992.3,N
1633103015.3,286046994.8,N
1633103035.2,286046994.8,N
1633103055.0,286046991.9,Y
1633103055.9,286046991.9,P
1633103075.8,286046998.5,N
1633103095.6,286046998.9,N
1633103115.4,286046998.8,N
1633103135.3,286046998.8,N
1633103155.1,286046999.3,N
1633103175.9,286046999.4,N
1633103195.7,286046999.0,N
1633103215.5,286046998.7,N
1633103235.4,286046999.0,N
1633103255.2,286046996.5,N
1633103275.0,286046996.6,N
1633103275.9,286046996.6,N
1633103295.8,286046996.6,N
1633103315.6,286046999.4,N
1633103335.5,286046999.9,N
1633103355.3,286047000.8,N
1633103375.1,286046999.3,N
1633103395.9,286046997.0,N
1633103415.7,286046996.8,N
1633103435.6,286046997.4,N
1633103455.4,286046997.6,N
1633103475.2,286046997.4,N
1633103495.1,286046998.0,N
1633103496.0,286046998.0,N
1633103515.8,286046995.3,N
1633103535.7,286046994.9,N
1633103555.5,286046994.9,N
1633103575.3,286046997.5,N
1633103595.2,286046997.7,N
1633103615.9,286046997.0,N
1633103635.7,286046996.7,N
1633103655.6,286046996.9,N
1633103675.4,286046998.7,N
1633103695.3,286046998.8,N
1633103715.1,286047000.8,N
1633103716.0,286047000.8,N
1633103735.8,286046998.3,N
1633103755.7,286046999.0,N
1633103775.5,286046997.3,N
1633103795.3,286046996.9,N
1633103815.2,286046996.7,N
1633103835.0,286046999.0,N
1633103835.9,286046999.0,N
1633103855.8,286046996.7,N
1633103875.6,286046999.2,N
1633103895.4,286046999.2,N
1633103915.3,286046999.5,N
1633103935.1,286046999.3,N
1633103955.9,286046998.5,N
1633103975.7,286047001.1,N
1633103995.5,286046998.8,N
